Terug naar catalogus

STARLINK-6248

ActiefCommunicatieVLEO
NORAD 57082·PAYLOAD·🇺🇸 United States

Gelanceerd Jun 22, 2023 vanaf Vandenberg Space Force Base

Loading…

Volgende Passages (komende 24 uur)

TLE

VersSource: CelesTrak SupGP

Epoch: Sep 15, 2026, 03:15 UTC

1 57082C 23088AL  26258.13590278  .00046550  00000+0  16874-2 0  2586
2 57082  43.0023 105.9091 0001964 275.2302 224.4716 15.27528715    12

Volg STARLINK-6248 in realtime met AllMySat

Download on the App Store